Regional Weather Roundup
Issued by NWS Wilmington, NC

Home | Current Version | Previous Version | Text Only | Print | Product List | Glossary On
Versions: 1 2 3 4 5 6 7 8 9 10 11 12 13 14 15 16 17 18 19 20 21 22 23 24 25 26 27 28 29 30 31 32 33 34 35 36 37 38 39 40 41 42 43 44 45 46 47 48 49 50
000
ASUS42 KILM 110212
RWRILM
RWRILM
REGIONAL HOURLY WEATHER ROUNDUP
NATIONAL WEATHER SERVICE WILMINGTON NC
900 PM EST SAT DEC 10 2016

NOTE: "FAIR" INDICATES FEW OR NO CLOUDS BELOW 12,000 FEET WITH NO
SIGNIFICANT WEATHER AND/OR OBSTRUCTIONS TO VISIBILITY.

...............WFO WILMINGTON COUNTY WARNING AREA...............

......COASTAL NC AND SC COUNTIES......

CITY           SKY/WX    TMP DP  RH WIND       PRES   REMARKS
WILMINGTON     CLEAR     29  23  78 N5        30.52F WCI  24
N MYRTLE BEACH CLEAR     30  26  85 CALM      30.51S
MYRTLE BEACH   CLEAR     32  23  69 CALM      30.53R

......INLAND NC AND SC COUNTIES.......

CITY           SKY/WX    TMP DP  RH WIND       PRES   REMARKS
LUMBERTON      CLEAR     26  25  96 CALM      30.52R
ELIZABETHTOWN  CLEAR     30  22  74 CALM      30.53R
WHITEVILLE     CLEAR     30  23  76 CALM      30.52R
FLORENCE       CLEAR     31  24  75 CALM      30.52S
DARLINGTON     CLEAR     28  24  85 CALM      30.53R
KINGSTREE      FAIR      30  27  86 CALM      30.52R
HARTSVILLE     FAIR      28  23  80 CALM      30.51R
BENNETTSVILLE  FAIR      32  30  93 CALM      30.52S
CONWAY         FAIR      28  27  93 CALM      30.53R
GEORGETOWN     NOT AVBL
MARION         FAIR      30  25  80 CALM      30.53R

....................REST OF NORTH CAROLINA......................

.........EASTERN NC.........

CITY           SKY/WX    TMP DP  RH WIND       PRES   REMARKS
CAPE HATTERAS  CLEAR     39  19  44 NW6       30.51R WCI  35
JACKSONVILLE   CLEAR     24  21  88 CALM      30.53R
MOREHEAD CITY  CLEAR     33  21  61 N3        30.52S
KENANSVILLE    CLEAR     27  19  74 CALM      30.53R
NEW BERN       CLEAR     28  21  75 CALM      30.54R
ELIZABETH CITY CLEAR     28  22  78 CALM      30.52R

.........CENTRAL NC.........

CITY           SKY/WX    TMP DP  RH WIND       PRES   REMARKS
RALEIGH DURHAM PTCLDY    29  16  58 CALM      30.50F
ROCKY MOUNT    CLEAR     27  20  75 CALM      30.53R
ROANOKE RAPIDS NOT AVBL
FAYETTEVILLE   CLEAR     31  21  66 CALM      30.52R
HOFFMAN        CLEAR     26  20  79 CALM      30.51S

.........WESTERN NC.........

CITY           SKY/WX    TMP DP  RH WIND       PRES   REMARKS
CHARLOTTE      CLEAR     36  16  44 S6        30.48S WCI  31
GREENSBORO     CLEAR     31  17  56 CALM      30.46S
HICKORY        NOT AVBL
BOONE          NOT AVBL
ASHEVILLE      NOT AVBL

.....................REST OF SOUTH CAROLINA.....................

.........EASTERN SC.........

CITY           SKY/WX    TMP DP  RH WIND       PRES   REMARKS
CHARLESTON     CLEAR     37  26  64 N7        30.50R WCI  32
BEAUFORT MCAS  CLEAR     39  28  64 NE7       30.48S WCI  34
HILTON HEAD    CLEAR     45  32  61 N7        30.47F

.........CENTRAL SC.........

CITY           SKY/WX    TMP DP  RH WIND       PRES   REMARKS
COLUMBIA       CLEAR     33  25  72 CALM      30.50S
ORANGEBURG     CLEAR     32  26  78 NE3       30.51R
SUMTER SHAW    CLEAR     30  22  72 CALM      30.49S

.........WESTERN SC.........

CITY           SKY/WX    TMP DP  RH WIND       PRES   REMARKS
GREENVILLE     NOT AVBL
ROCK HILL      CLEAR     29  19  66 CALM      30.48S
ANDERSON       CLEAR     32  23  69 CALM      30.45F
CLEMSON        NOT AVBL
GREENWOOD      CLEAR     29  20  69 CALM      30.48F


...................COASTAL AND OFFSHORE REPORTS..................

................LOCAL PIERS AND NC RESERVE................


STATION/POSITION TIME  SKY/WX   TEMP    WIND        PRES    VSBY
                                AIR SEA DIR/SP/G
                 (UTC)          (F)     (DEG/KT/KT) (MB)    (MI)
JOHNY MRCER PIER 0148            38 60  360/  6/  7 1032.2F
NC RESRV MASNBRO 0045            34        CALM     1032.0
OCEAN CREST PIER NOT AVBL
SPRINGMAID  PIER NOT AVBL


................COASTAL AND OFFSHORE BUOYS................


STATION/POSITION TIME  SKY/WX   TEMP    WIND        PRES    VSBY
                                AIR SEA DIR/SP/G
                 (UTC)          (F)     (DEG/KT/KT) (MB)    (MI)
DIMNDSHOAL 41025 0150            44 77  350/ 12/ 17 1033.0R
WVE H/P(F/S)=  4/ 8 SWL H/P/D(F/S/D)=  3/ 60/ 8

CAPE LOOKOUT     0100            41     340/ 11/ 12 1033.0R
ONSLOW BAY 41036 NOT AVBL
ONSLOW BAY 41064 0108            46 68  350/ 10/ 16 1033.2R
ONSLOW BAY 41159 0143               68                N/A
WVE H/P(F/S)=  2/ 8

5SE WRITBC 41038 0108            41 60  360/ 12/ 17 1032.6F
MASNBO INL 41110 0159               60                N/A
WVE H/P(F/S)=  1/ 8

WILM HARBR 41108 0156               59                N/A
WVE H/P(F/S)=  1/ 8

27SE WRITB 41037 0108            46 69  360/ 10/ 17 1033.0R
FRYING PAN 41013 0140            48 72   10/ 10/ 14 1032.8S
SUNST NRSH 41024 0108            44 58   30/  8/ 10 1032.9R
CAPRS NRSH 41029 0108            48 59   50/ 10/ 14 1032.1S
EDISTO     41004 0150            52 73   40/ 12/ 17 1031.4F
WVE H/P(F/S)=  3/ 5 SWL H/P/D(F/S/D)=  2/ 80/ 6



..........OFFSHORE BUOYS BEYOND 100 NM OFFSHORE...........
.....IN A TRIANGLE---HAT TO BERMUDA TO BAHAMAS TO HAT.....


STATION/POSITION TIME  SKY/WX   TEMP    WIND        PRES    VSBY
                                AIR SEA DIR/SP/G
                 (UTC)          (F)     (DEG/KT/KT) (MB)    (MI)
150E HAT   41001 NOT AVBL
W BERMUDA  41048 0150            62 72  330/ 16/ 19 1028.3R
WVE H/P(F/S)=  7/ 9 SWL H/P/D(F/S/D)=  5/360/ 9

ATLANTIC S 41049 0150            72 76   70/ 10/ 12 1025.1R
WVE H/P(F/S)=  6/ 9 SWL H/P/D(F/S/D)=  5/330/ 9

E BAHAMAS  41046 0140            77 79   70/ 17/ 19 1023.1R
NE BAHAMAS 41047 0140            72 76   60/ 17/ 21 1025.3S
120E CANVRL41010 NOT AVBL

END



USA.gov is the U.S. government's official web portal to all federal, state and local government web resources and services.